Погода в Краснокумском

Россия / Ставропольский край     44°10′29″N   43°29′47″E
темп.,
°C
ветер,
м/с
пор.,
м/с
влажн.,
%
обл.,
%
осадки,
мм/ч
давл.,
гПа
погр.,
м
13 июня, вс
вс1300:00+17сз3490100 0.5 101162
03:00+16з4996100 1.9 1012226
06:00+17зсз4795100 2.8 1012229
09:00+17зсз4694100 4.1 1013304
12:00+19ссз338698 0.4 1012503
15:00+20ссв3380100 1.3 1012436
18:00+20всв228499 0.6 1012360
21:00+17з009460 0.6 101311
14 июня, пн
пн1400:00+16зюз11945 0.0 101211
03:00+15зсз22945 0.0 101225
06:00+17з11904 0.0 101387
09:00+22вюв11740 0.0 1012627
12:00+24в336323 0.0 10111286
15:00+26в335920 0.1 10101600
18:00+25в23705 0.0 1010195
21:00+20ююв228278 0.1 101013
15 июня, вт
вт1500:00+18ююв11858 0.0 100911
03:00+18ююв1185100 0.0 100811
06:00+19вюв1285100 0.3 100881
09:00+23всв347332 0.5 1008642
12:00+26вюв336143 0.0 10091405
15:00+27юв225770 0.1 10081562
18:00+27зюз116627 0.0 1008198
21:00+23сз227214 0.1 100915
16 июня, ср
ср1600:00+20сз118493 0.1 100911
03:00+19св11850 0.1 100911
06:00+20всв11820 0.0 100884
09:00+25в35660 0.1 1009757
12:00+28в24534 0.0 10091608
15:00+22з998252 0.0 1010472
18:00+21зсз710840 0.0 1010378
21:00+19зсз59917 0.0 1012266
17 июня, чт
чт1700:00+17зсз379546 0.0 1012198
03:00+18зсз368980 0.0 1011240
06:00+19сз358935 0.0 1010246
09:00+21ссз338399 0.0 1009626
12:00+23ссз337780 0.1 1008792
15:00+26зсз556872 0.1 10081101
18:00+22зсз7128499 0.0 1010535
21:00+20з917816 0.1 1011631